FW8143 Weather Reports


Display with metric or nautical units.
time (UTC)temp
F
wind
direction
speed
MPH
gust
MPH
rain 1hr
in
rain 24hr
in
rain mn
in
humidity
%
barometer
mb
20260507210754 69 304 7.0 14.0 0.00 0.00 0.00 12 1024.3
20260507210038 69 327 7.0 13.0 0.00 0.00 0.00 12 1024.3
20260507205537 69 287 7.0 14.0 0.00 0.00 0.00 12 1024.3
20260507205038 69 344 6.0 14.0 0.00 0.00 0.00 12 1024.2
20260507204537 68 275 6.0 13.0 0.00 0.00 0.00 11 1024.4
20260507204038 68 11 6.0 12.0 0.00 0.00 0.00 12 1024.5
20260507203538 68 230 7.0 14.0 0.00 0.00 0.00 11 1024.5
20260507203038 68 34 6.0 14.0 0.00 0.00 0.00 10 1024.7
20260507202537 68 20 6.0 15.0 0.00 0.00 0.00 11 1024.8
20260507202031 68 15 6.0 15.0 0.00 0.00 0.00 11 1024.8
20260507201525 68 273 7.0 21.0 0.00 0.00 0.00 12 1024.8
20260507201021 68 284 7.0 21.0 0.00 0.00 0.00 10 1024.8
20260507200522 67 9 6.0 17.0 0.00 0.00 0.00 11 1024.8
20260507200023 67 311 6.0 14.0 0.00 0.00 0.00 11 1024.9
20260507195522 67 217 7.0 13.0 0.00 0.00 0.00 10 1025.0
20260507195022 67 184 6.0 14.0 0.00 0.00 0.00 13 1025.0
20260507194521 66 290 7.0 14.0 0.00 0.00 0.00 12 1025.0
20260507194244 66 244 7.0 15.0 0.00 0.00 0.00 13 1025.2
20260507193522 65 44 5.0 15.0 0.00 0.00 0.00 14 1025.0
20260507193022 65 252 6.0 13.0 0.00 0.00 0.00 14 1025.2
20260507192522 65 14 8.0 18.0 0.00 0.00 0.00 14 1025.2
20260507192019 65 9 9.0 18.0 0.00 0.00 0.00 16 1025.2
20260507191520 64 348 7.0 15.0 0.00 0.00 0.00 15 1025.2
20260507191018 64 273 7.0 13.0 0.00 0.00 0.00 17 1025.2
20260507190518 64 355 8.0 17.0 0.00 0.00 0.00 19 1025.3
20260507190458 64 332 8.0 17.0 0.00 0.00 0.00 20 1025.4
20260507185517 63 18 8.0 17.0 0.00 0.00 0.00 20 1025.4
20260507185018 63 288 9.0 17.0 0.00 0.00 0.00 20 1025.4
20260507184740 62 15 10.0 20.0 0.00 0.00 0.00 21 1025.5
20260507184625 62 348 10.0 20.0 0.00 0.00 0.00 21 1025.5
20260507183518 62 336 8.0 16.0 0.00 0.00 0.00 22 1025.7
20260507183018 61 306 8.0 18.0 0.00 0.00 0.00 23 1025.5
20260507183001 60 5 9.0 19.0 0.00 0.00 0.00 25 1025.7
20260507182018 60 344 10.0 19.0 0.00 0.00 0.00 25 1025.7
20260507181517 60 311 9.0 18.0 0.00 0.00 0.00 26 1025.8
20260507181018 59 5 10.0 18.0 0.00 0.00 0.00 26 1025.8
20260507180738 59 296 11.0 20.0 0.00 0.00 0.00 27 1025.8
20260507180016 58 351 11.0 20.0 0.00 0.00 0.00 28 1025.9
20260507175514 58 10 11.0 20.0 0.00 0.00 0.00 29 1025.9
20260507175009 57 9 11.0 21.0 0.00 0.00 0.00 30 1026.0
20260507174503 57 15 11.0 21.0 0.00 0.00 0.00 33 1026.0
20260507173956 56 298 11.0 19.0 0.00 0.00 0.00 33 1026.2
20260507173451 56 22 11.0 22.0 0.00 0.00 0.00 36 1026.3
20260507172945 55 319 11.0 22.0 0.00 0.00 0.00 37 1026.3
20260507172438 55 336 11.0 21.0 0.00 0.00 0.00 39 1026.3
20260507171933 54 13 10.0 21.0 0.00 0.00 0.00 41 1026.3
20260507171434 53 321 10.0 20.0 0.00 0.00 0.00 43 1026.3
20260507171204 53 30 10.0 20.0 0.00 0.00 0.00 44 1026.4
20260507170434 52 34 11.0 21.0 0.00 0.00 0.00 44 1026.4
20260507170157 52 5 11.0 21.0 0.00 0.00 0.00 46 1026.5
20260507165916 51 10 11.0 21.0 0.00 0.00 0.00 47 1026.4
20260507164933 51 294 11.0 20.0 0.00 0.00 0.00 48 1026.5
20260507164659 50 10 11.0 21.0 0.00 0.00 0.00 49 1026.5
20260507163934 50 44 11.0 23.0 0.00 0.00 0.00 51 1026.5
20260507163657 49 355 9.0 23.0 0.00 0.00 0.00 53 1026.5
20260507163151 49 321 10.0 20.0 0.00 0.00 0.00 54 1026.5
20260507162656 48 355 13.0 21.0 0.00 0.00 0.00 56 1026.4
20260507161934 48 5 13.0 21.0 0.00 0.00 0.00 57 1026.5
20260507161433 47 32 12.0 21.0 0.00 0.00 0.00 59 1026.5
20260507160933 47 10 12.0 21.0 0.00 0.00 0.00 60 1026.7
20260507160434 46 0 11.0 21.0 0.00 0.00 0.00 60 1026.7
20260507155933 46 23 11.0 20.0 0.00 0.00 0.00 62 1026.7
20260507155427 45 355 11.0 20.0 0.00 0.00 0.00 62 1026.8
20260507154921 45 0 10.0 18.0 0.00 0.00 0.00 63 1026.9
20260507154414 44 18 9.0 18.0 0.00 0.00 0.00 65 1026.8
20260507154129 44 317 8.0 15.0 0.00 0.00 0.00 65 1026.9
20260507153402 43 355 8.0 15.0 0.00 0.00 0.00 65 1026.9
20260507152856 43 332 7.0 14.0 0.00 0.00 0.00 65 1027.1
20260507152350 42 5 7.0 14.0 0.00 0.00 0.00 66 1027.1
20260507151845 42 331 7.0 13.0 0.00 0.00 0.00 67 1027.2
20260507151338 41 309 4.0 13.0 0.00 0.00 0.00 69 1027.1
20260507151057 40 307 3.0 9.0 0.00 0.00 0.00 70 1027.1
20260507150327 39 323 3.0 9.0 0.00 0.00 0.00 71 1027.1
20260507145821 39 295 3.0 8.0 0.00 0.00 0.00 73 1027.2
20260507145315 38 305 4.0 8.0 0.00 0.00 0.00 73 1027.2
20260507144809 38 303 3.0 8.0 0.00 0.00 0.00 75 1027.3
20260507144302 37 298 3.0 7.0 0.00 0.00 0.00 77 1027.3
20260507143757 36 335 4.0 9.0 0.00 0.00 0.00 77 1027.3
20260507143251 36 0 5.0 10.0 0.00 0.00 0.00 78 1027.3
20260507142745 35 24 6.0 10.0 0.00 0.00 0.00 79 1027.4
20260507142239 35 21 4.0 10.0 0.00 0.00 0.00 80 1027.4
20260507141733 35 320 3.0 10.0 0.00 0.00 0.00 81 1027.6
20260507141451 34 329 4.0 11.0 0.00 0.00 0.00 83 1027.7
20260507140720 34 0 4.0 11.0 0.00 0.00 0.00 85 1027.8
20260507140215 34 19 4.0 9.0 0.00 0.00 0.00 86 1027.8
20260507135709 33 351 3.0 7.0 0.00 0.00 0.00 86 1027.8
20260507135203 33 324 3.0 8.0 0.00 0.00 0.00 87 1027.8
20260507134657 33 18 2.0 8.0 0.00 0.00 0.00 87 1027.8
20260507134151 33 53 2.0 5.0 0.00 0.00 0.00 87 1027.7
20260507133644 32 50 1.0 4.0 0.00 0.00 0.00 87 1027.7
20260507133139 32 64 1.0 4.0 0.00 0.00 0.00 87 1027.7
20260507132632 32 42 1.0 3.0 0.00 0.00 0.00 87 1027.6
20260507132127 32 38 0.0 3.0 0.00 0.00 0.00 86 1027.6
20260507131621 31 42 0.0 3.0 0.00 0.00 0.00 86 1027.7
20260507131115 31 42 1.0 4.0 0.00 0.00 0.00 86 1027.7
20260507130610 31 42 2.0 4.0 0.00 0.00 0.00 85 1027.7
20260507130104 31 81 3.0 6.0 0.00 0.00 0.00 85 1027.8
20260507125558 31 87 3.0 6.0 0.00 0.00 0.00 85 1027.7
20260507125052 31 101 4.0 7.0 0.00 0.00 0.00 84 1027.7
20260507124546 31 89 4.0 7.0 0.00 0.00 0.00 84 1027.6
20260507124040 31 87 4.0 6.0 0.00 0.00 0.00 83 1027.6
20260507123534 31 94 4.0 7.0 0.00 0.00 0.00 83 1027.6
20260507123028 31 77 4.0 7.0 0.00 0.00 0.00 83 1027.7
20260507122529 31 86 4.0 7.0 0.00 0.00 0.00 83 1027.7
20260507122029 31 80 3.0 7.0 0.00 0.00 0.00 82 1027.7
20260507121747 31 73 2.0 5.0 0.00 0.00 0.00 80 1027.7
20260507121029 31 52 1.0 5.0 0.00 0.00 0.00 80 1027.8
20260507120527 31 66 1.0 3.0 0.00 0.00 0.00 80 1027.8
20260507120511 31 82 1.0 3.0 0.00 0.00 0.00 80 1027.7
20260507115525 32 51 0.0 2.0 0.00 0.00 0.00 80 1027.7
20260507115517 32 43 1.0 6.0 0.00 0.00 0.00 80 1027.7
20260507114523 32 43 2.0 6.0 0.00 0.00 0.00 80 1027.7
20260507114021 32 77 3.0 6.0 0.00 0.00 0.00 80 1027.7
20260507113519 32 94 4.0 6.0 0.00 0.00 0.00 80 1027.6
20260507113019 32 90 4.0 6.0 0.00 0.00 0.00 79 1027.6
20260507112519 32 94 4.0 7.0 0.00 0.00 0.00 80 1027.6
20260507112018 32 96 4.0 7.0 0.00 0.00 0.00 79 1027.6
20260507111519 32 97 4.0 7.0 0.00 0.00 0.00 79 1027.6
20260507111019 32 89 4.0 7.0 0.00 0.00 0.00 78 1027.4
20260507110519 32 87 4.0 8.0 0.00 0.00 0.00 78 1027.6
20260507110012 32 95 4.0 8.0 0.00 0.00 0.00 78 1027.4
20260507105509 32 100 4.0 8.0 0.00 0.00 0.00 78 1027.6
20260507105009 32 102 4.0 8.0 0.00 0.00 0.00 79 1027.6
20260507104508 32 103 4.0 8.0 0.00 0.00 0.00 79 1027.6
20260507104009 32 100 4.0 7.0 0.00 0.00 0.00 79 1027.6
20260507103508 32 99 4.0 7.0 0.00 0.00 0.00 79 1027.6
20260507103008 32 100 3.0 6.0 0.00 0.00 0.00 79 1027.7
20260507102509 32 93 3.0 6.0 0.00 0.00 0.00 79 1027.7
20260507102009 32 94 3.0 4.0 0.00 0.00 0.00 79 1027.6
20260507101508 32 78 3.0 6.0 0.00 0.00 0.00 79 1027.6
20260507101234 32 80 4.0 6.0 0.00 0.00 0.00 78 1027.6
20260507100507 32 76 4.0 6.0 0.00 0.00 0.00 78 1027.7
20260507100007 32 98 4.0 6.0 0.00 0.00 0.00 78 1027.7
20260507095507 33 92 4.0 7.0 0.00 0.00 0.00 77 1027.7
20260507095003 33 98 4.0 7.0 0.00 0.00 0.00 77 1027.8
20260507094503 33 90 2.0 6.0 0.00 0.00 0.00 76 1027.8
20260507094003 33 100 1.0 4.0 0.00 0.00 0.00 76 1027.8
20260507093721 33 94 1.0 4.0 0.00 0.00 0.00 74 1027.8
20260507093002 33 103 1.0 3.0 0.00 0.00 0.00 74 1027.7
20260507092504 33 119 1.0 3.0 0.00 0.00 0.00 74 1027.7
20260507092003 33 99 1.0 3.0 0.00 0.00 0.00 73 1027.8
20260507091502 34 114 1.0 3.0 0.00 0.00 0.00 73 1027.7
20260507091222 34 140 0.0 3.0 0.00 0.00 0.00 72 1027.7
20260507090504 34 130 1.0 5.0 0.00 0.00 0.00 71 1027.8
20260507090002 34 125 1.0 5.0 0.00 0.01 0.00 71 1027.8
20260507085502 34 109 1.0 3.0 0.00 0.01 0.00 70 1027.7
20260507085003 34 111 1.0 3.0 0.00 0.01 0.00 69 1027.6
20260507084502 34 132 2.0 7.0 0.00 0.01 0.00 69 1027.4
20260507084002 34 130 2.0 12.0 0.00 0.01 0.00 68 1027.6
20260507083502 34 138 2.0 12.0 0.00 0.01 0.00 67 1027.4
20260507083003 34 124 2.0 6.0 0.00 0.01 0.00 66 1027.4
20260507082502 35 123 3.0 4.0 0.00 0.01 0.00 65 1027.4
20260507081956 35 123 3.0 6.0 0.00 0.01 0.00 64 1027.4
20260507081716 35 101 3.0 7.0 0.00 0.01 0.00 63 1027.4
20260507080944 35 98 2.0 7.0 0.00 0.01 0.00 63 1027.6
20260507080438 36 96 1.0 5.0 0.00 0.01 0.00 63 1027.4
20260507075932 36 134 1.0 5.0 0.00 0.01 0.00 63 1027.4
20260507075426 36 146 1.0 5.0 0.00 0.01 0.00 61 1027.4
20260507074920 36 117 1.0 3.0 0.00 0.01 0.00 59 1027.4
20260507074414 37 96 1.0 4.0 0.00 0.01 0.00 59 1027.4
20260507073908 37 93 2.0 8.0 0.00 0.01 0.00 59 1027.3
20260507073402 37 89 3.0 8.0 0.00 0.01 0.00 58 1027.3
20260507073120 37 119 1.0 7.0 0.00 0.01 0.00 58 1027.2
20260507072350 37 93 2.0 6.0 0.00 0.01 0.00 56 1027.2
20260507071845 37 88 3.0 6.0 0.00 0.01 0.00 55 1027.1
20260507071340 37 82 3.0 7.0 0.00 0.01 0.00 55 1027.1
20260507070833 37 93 3.0 7.0 0.00 0.01 0.00 55 1027.1
20260507070327 37 83 2.0 5.0 0.00 0.01 0.00 55 1027.1
20260507065821 37 81 2.0 4.0 0.00 0.01 0.00 55 1027.1
20260507065315 38 81 2.0 4.0 0.00 0.01 0.00 55 1027.1
20260507064808 38 77 2.0 6.0 0.00 0.01 0.00 56 1027.1
20260507064526 38 69 3.0 7.0 0.00 0.01 0.00 57 1026.9
20260507063757 38 91 5.0 8.0 0.00 0.01 0.00 57 1026.9
20260507063251 38 88 5.0 8.0 0.00 0.01 0.00 56 1026.8
20260507062746 38 93 5.0 8.0 0.00 0.01 0.00 56 1026.8
20260507062239 38 96 6.0 8.0 0.00 0.01 0.00 56 1026.7
20260507061733 38 95 6.0 8.0 0.00 0.01 0.00 57 1026.7
20260507061227 38 96 5.0 8.0 0.00 0.01 0.00 58 1026.8
20260507060722 38 94 5.0 8.0 0.00 0.01 0.00 59 1026.7
20260507060216 38 110 6.0 8.0 0.00 0.01 0.00 59 1026.7
20260507055714 38 90 5.0 8.0 0.00 0.01 0.01 60 1026.7
20260507055435 39 107 6.0 9.0 0.00 0.01 0.01 60 1026.5
20260507054715 39 103 5.0 9.0 0.00 0.01 0.01 60 1026.5
20260507054215 39 112 5.0 9.0 0.00 0.01 0.01 59 1026.4
20260507053939 39 117 6.0 9.0 0.00 0.01 0.01 59 1026.3
20260507053214 40 107 5.0 10.0 0.00 0.01 0.01 58 1026.3
20260507052715 40 98 5.0 10.0 0.00 0.01 0.01 58 1026.3
20260507052212 40 84 5.0 8.0 0.00 0.01 0.01 56 1026.3
20260507051711 40 92 4.0 8.0 0.00 0.01 0.01 56 1026.3
20260507051211 40 89 4.0 6.0 0.00 0.01 0.01 57 1026.3
20260507050712 40 81 4.0 6.0 0.00 0.01 0.01 56 1026.3
20260507050206 41 61 4.0 7.0 0.00 0.01 0.01 55 1026.3
20260507045929 41 55 4.0 7.0 0.00 0.01 0.01 56 1026.3
20260507045427 41 63 4.0 7.0 0.00 0.02 0.01 57 1026.2
20260507044707 41 83 5.0 7.0 0.00 0.02 0.01 57 1026.2
20260507044207 41 98 5.0 7.0 0.00 0.03 0.01 57 1026.0
20260507043708 41 91 4.0 8.0 0.00 0.03 0.01 56 1026.0
20260507043208 41 83 4.0 8.0 0.00 0.03 0.01 56 1025.9
20260507042707 41 93 4.0 7.0 0.00 0.03 0.01 56 1025.9
20260507042647 42 91 4.0 7.0 0.00 0.03 0.01 55 1025.9
20260507041707 42 87 3.0 6.0 0.00 0.03 0.01 54 1025.8
20260507041428 42 76 3.0 5.0 0.00 0.04 0.01 54 1025.7
20260507040707 42 63 3.0 4.0 0.00 0.04 0.01 53 1025.7
20260507040206 42 34 3.0 5.0 0.00 0.04 0.01 53 1025.5
20260507035708 43 15 4.0 7.0 0.00 0.04 0.01 53 1025.5
20260507035207 43 27 4.0 7.0 0.00 0.04 0.01 53 1025.5
20260507034706 43 17 2.0 4.0 0.00 0.04 0.01 52 1025.4
20260507034207 43 349 2.0 5.0 0.00 0.04 0.01 53 1025.3
20260507033707 44 341 3.0 6.0 0.00 0.04 0.01 52 1025.4
20260507033159 44 9 1.0 5.0 0.00 0.04 0.01 52 1025.3
20260507032654 44 5 0.0 3.0 0.00 0.04 0.01 52 1025.3
20260507032147 45 277 0.0 2.0 0.00 0.04 0.01 50 1025.0
20260507031642 45 281 0.0 3.0 0.00 0.04 0.01 50 1024.9
20260507031137 45 254 1.0 3.0 0.00 0.04 0.01 50 1024.9
20260507030630 45 246 2.0 3.0 0.00 0.04 0.01 48 1024.7
20260507030124 46 250 2.0 5.0 0.00 0.05 0.01 48 1024.7
20260507025842 46 251 3.0 7.0 0.00 0.06 0.01 47 1024.5
20260507025111 46 236 3.0 7.0 0.00 0.07 0.01 47 1024.4
20260507024606 46 277 3.0 8.0 0.00 0.08 0.01 47 1024.4
20260507024100 46 244 5.0 10.0 0.00 0.08 0.01 47 1024.3
20260507023553 47 252 5.0 11.0 0.00 0.08 0.01 46 1024.2
20260507023047 47 254 5.0 11.0 0.00 0.09 0.01 45 1024.2
20260507022542 47 239 6.0 13.0 0.00 0.09 0.01 45 1023.9
20260507022035 47 250 7.0 15.0 0.00 0.09 0.01 45 1023.8
20260507021752 48 251 7.0 15.0 0.00 0.09 0.01 44 1023.7
20260507021023 48 266 8.0 14.0 0.00 0.09 0.01 43 1023.8
20260507020745 49 268 8.0 15.0 0.00 0.09 0.01 43 1023.5
20260507020233 49 267 8.0 16.0 0.00 0.09 0.01 42 1023.5
20260507015506 49 261 8.0 16.0 0.00 0.09 0.01 42 1023.4
20260507014959 50 257 8.0 16.0 0.00 0.09 0.01 42 1023.4
20260507014454 50 248 8.0 16.0 0.00 0.10 0.01 41 1023.2
20260507013947 51 263 9.0 17.0 0.00 0.11 0.01 41 1023.3
20260507013442 51 264 10.0 17.0 0.00 0.13 0.01 40 1023.2
20260507012935 51 242 9.0 18.0 0.00 0.16 0.01 40 1023.2
20260507012430 51 236 8.0 18.0 0.00 0.17 0.01 40 1023.2
20260507011924 50 5 9.0 21.0 0.00 0.17 0.01 39 1023.2
20260507011418 50 260 12.0 24.0 0.00 0.17 0.01 39 1023.2
20260507010912 50 297 13.0 24.0 0.00 0.17 0.01 39 1023.0
20260507010405 50 20 11.0 20.0 0.00 0.17 0.01 38 1022.9
20260507005900 51 318 9.0 17.0 0.00 0.17 0.01 40 1022.9
20260507005354 51 261 9.0 18.0 0.00 0.17 0.01 40 1022.5
20260507005112 51 176 9.0 20.0 0.00 0.17 0.01 40 1022.6
20260507004342 51 15 10.0 20.0 0.00 0.17 0.01 40 1022.4
20260507003835 51 297 8.0 20.0 0.00 0.17 0.01 40 1022.3
20260507003330 51 234 5.0 14.0 0.00 0.17 0.01 46 1022.1
20260507002823 51 300 4.0 14.0 0.00 0.17 0.01 49 1022.0
20260507002546 51 332 4.0 12.0 0.00 0.17 0.01 50 1022.0
20260507001812 51 0 6.0 17.0 0.00 0.17 0.01 51 1022.0
20260507001305 51 196 10.0 24.0 0.00 0.17 0.01 49 1022.0
20260507000800 52 275 10.0 24.0 0.00 0.17 0.01 43 1022.0
20260507000253 52 269 8.0 15.0 0.00 0.17 0.01 41 1021.6
20260506235748 52 273 9.0 19.0 0.00 0.17 0.01 41 1021.5
20260506235509 52 254 10.0 20.0 0.00 0.17 0.01 41 1021.5
20260506234736 52 258 9.0 20.0 0.00 0.17 0.01 41 1021.6
20260506234229 52 222 6.0 17.0 0.00 0.17 0.01 43 1021.6
20260506233723 51 211 4.0 11.0 0.00 0.17 0.01 47 1021.8
20260506233218 51 272 5.0 11.0 0.00 0.17 0.01 47 1021.8
20260506232711 51 268 6.0 11.0 0.00 0.17 0.01 47 1021.6
20260506232426 51 252 6.0 13.0 0.00 0.17 0.01 47 1021.5
20260506231700 51 291 6.0 13.0 0.00 0.17 0.01 47 1021.4
20260506231154 51 248 5.0 10.0 0.00 0.17 0.01 47 1021.5
20260506230648 51 5 5.0 12.0 0.00 0.17 0.01 47 1021.5
20260506230141 51 272 5.0 12.0 0.00 0.17 0.01 49 1021.6
20260506225636 50 300 7.0 14.0 0.00 0.17 0.01 53 1021.6
20260506225129 50 302 7.0 14.0 0.00 0.17 0.01 53 1021.5
20260506225112 50 281 8.0 15.0 0.00 0.17 0.01 54 1021.5
20260506224118 50 291 9.0 19.0 0.00 0.17 0.01 52 1021.5
20260506223611 50 310 10.0 20.0 0.00 0.17 0.01 52 1021.5
20260506223105 51 279 12.0 26.0 0.00 0.17 0.01 52 1021.6
20260506222559 52 273 13.0 26.0 0.00 0.17 0.01 49 1021.5
20260506222054 53 26 15.0 26.0 0.00 0.17 0.01 49 1021.3
20260506221548 54 329 14.0 26.0 0.00 0.17 0.01 47 1020.9
20260506221042 54 30 10.0 24.0 0.00 0.17 0.01 40 1020.6
20260506220536 54 260 10.0 24.0 0.00 0.17 0.01 41 1020.6
20260506220030 54 289 12.0 24.0 0.00 0.17 0.01 40 1020.5
20260506215747 54 277 11.0 24.0 0.00 0.17 0.01 38 1020.4
20260506215017 55 286 9.0 19.0 0.00 0.17 0.01 38 1020.4
20260506214518 55 270 10.0 21.0 0.00 0.17 0.01 39 1020.5
20260506214018 56 312 10.0 21.0 0.00 0.17 0.01 39 1020.6
20260506213519 55 236 10.0 19.0 0.00 0.17 0.01 41 1020.5
20260506213239 54 290 11.0 23.0 0.00 0.17 0.01 45 1020.5
20260506212518 53 241 13.0 23.0 0.00 0.17 0.01 45 1020.6
20260506212018 53 242 14.0 25.0 0.00 0.17 0.01 43 1020.5
20260506211518 54 253 14.0 25.0 0.00 0.17 0.01 43 1020.5
20260506211020 54 225 11.0 24.0 0.00 0.17 0.01 42 1020.4